01-05-2022, 00:00:03,    262,    0.0,    9.5,   0.00,   0.00, 1020.9,   53.9, -999.0
01-05-2022, 00:00:13,    262,    0.0,    9.5,   0.00,   0.00, 1020.9,   54.0, -999.0
01-05-2022, 00:00:23,    262,    0.0,    9.4,   0.00,   0.00, 1020.9,   54.0, -999.0
01-05-2022, 00:00:33,    262,    0.0,    9.5,   0.00,   0.00, 1020.9,   54.1, -999.0
01-05-2022, 00:00:43,    261,    0.0,    9.5,   0.00,   0.00, 1020.9,   54.2, -999.0
01-05-2022, 00:00:53,    281,    0.4,    9.5,   0.00,   0.00, 1021.0,   54.4, -999.0
01-05-2022, 00:01:03,    258,    0.9,    9.6,   0.00,   0.00, 1021.0,   54.6, -999.0
01-05-2022, 00:01:13,    247,    1.5,    9.6,   0.00,   0.00, 1021.0,   54.5, -999.0
01-05-2022, 00:01:23,    267,    2.2,    9.7,   0.00,   0.00, 1021.0,   54.4, -999.0
01-05-2022, 00:01:32,    261,    1.0,    9.6,   0.00,   0.00, 1021.0,   54.5, -999.0
01-05-2022, 00:01:43,    259,    0.2,    9.5,   0.00,   0.00, 1021.0,   54.3, -999.0
01-05-2022, 00:01:52,    250,    0.4,    9.5,   0.00,   0.00, 1021.0,   54.3, -999.0
01-05-2022, 00:02:02,    259,    0.0,    9.5,   0.00,   0.00, 1020.9,   54.3, -999.0
01-05-2022, 00:02:12,    259,    0.0,    9.5,   0.00,   0.00, 1020.9,   54.2, -999.0
01-05-2022, 00:02:22,    256,    0.0,    9.5,   0.00,   0.00, 1020.9,   54.2, -999.0
01-05-2022, 00:02:32,    255,    0.0,    9.5,   0.00,   0.00, 1020.9,   54.1, -999.0
01-05-2022, 00:02:42,    255,    0.0,    9.4,   0.00,   0.00, 1020.9,   54.2, -999.0
01-05-2022, 00:02:52,    256,    0.0,    9.4,   0.00,   0.00, 1020.9,   54.3, -999.0
01-05-2022, 00:03:02,    256,    0.0,    9.4,   0.00,   0.00, 1020.9,   54.1, -999.0
01-05-2022, 00:03:12,    255,    0.0,    9.4,   0.00,   0.00, 1020.9,   54.2, -999.0
01-05-2022, 00:03:22,    256,    0.0,    9.5,   0.00,   0.00, 1020.9,   54.1, -999.0
01-05-2022, 00:03:32,    253,    0.0,    9.5,   0.00,   0.00, 1020.8,   54.2, -999.0
01-05-2022, 00:03:42,    254,    0.0,    9.5,   0.00,   0.00, 1020.8,   54.1, -999.0
01-05-2022, 00:03:52,    253,    0.0,    9.5,   0.00,   0.00, 1020.8,   54.2, -999.0
01-05-2022, 00:04:02,    254,    0.0,    9.5,   0.00,   0.00, 1020.9,   54.3, -999.0
01-05-2022, 00:04:12,    243,    0.2,    9.4,   0.00,   0.00, 1020.9,   54.4, -999.0
01-05-2022, 00:04:22,    270,    0.4,    9.5,   0.00,   0.00, 1020.9,   54.5, -999.0
01-05-2022, 00:04:32,    258,    0.4,    9.6,   0.00,   0.00, 1020.9,   54.5, -999.0
01-05-2022, 00:04:41,    259,    0.2,    9.5,   0.00,   0.00, 1020.9,   54.3, -999.0
01-05-2022, 00:04:52,    238,    0.2,    9.5,   0.00,   0.00, 1020.9,   54.3, -999.0
01-05-2022, 00:05:01,    236,    0.7,    9.6,   0.00,   0.00, 1021.0,   54.4, -999.0
01-05-2022, 00:05:11,    236,    0.0,    9.5,   0.00,   0.00, 1020.9,   54.0, -999.0
01-05-2022, 00:05:22,    214,    0.0,    9.5,   0.00,   0.00, 1020.8,   54.1, -999.0
01-05-2022, 00:05:31,    215,    0.0,    9.5,   0.00,   0.00, 1020.8,   54.0, -999.0
01-05-2022, 00:05:41,    216,    0.0,    9.5,   0.00,   0.00, 1020.9,   54.0, -999.0
01-05-2022, 00:05:51,    217,    0.0,    9.5,   0.00,   0.00, 1020.8,   54.1, -999.0
01-05-2022, 00:06:01,    217,    0.0,    9.5,   0.00,   0.00, 1020.8,   54.2, -999.0
01-05-2022, 00:06:11,    217,    0.0,    9.5,   0.00,   0.00, 1020.8,   54.1, -999.0
01-05-2022, 00:06:21,    218,    0.0,    9.5,   0.00,   0.00, 1020.8,   54.1, -999.0
01-05-2022, 00:06:31,    218,    0.0,    9.5,   0.00,   0.00, 1020.8,   54.1, -999.0
01-05-2022, 00:06:41,    217,    0.0,    9.5,   0.00,   0.00, 1020.8,   54.2, -999.0
01-05-2022, 00:06:51,    220,    0.0,    9.5,   0.00,   0.00, 1020.8,   54.1, -999.0
01-05-2022, 00:07:01,    220,    0.0,    9.5,   0.00,   0.00, 1020.8,   54.1, -999.0
01-05-2022, 00:07:11,    220,    0.0,    9.5,   0.00,   0.00, 1020.8,   54.1, -999.0
01-05-2022, 00:07:21,    220,    0.0,    9.5,   0.00,   0.00, 1020.8,   54.2, -999.0
01-05-2022, 00:07:31,    220,    0.0,    9.5,   0.00,   0.00, 1020.8,   54.1, -999.0
01-05-2022, 00:07:40,    220,    0.0,    9.5,   0.00,   0.00, 1020.8,   54.1, -999.0
01-05-2022, 00:07:51,    220,    0.0,    9.5,   0.00,   0.00, 1020.8,   54.2, -999.0
01-05-2022, 00:08:01,    223,    0.0,    9.5,   0.00,   0.00, 1020.8,   54.2, -999.0
01-05-2022, 00:08:10,    222,    0.0,    9.5,   0.00,   0.00, 1020.8,   54.3, -999.0
01-05-2022, 00:08:20,    222,    0.0,    9.5,   0.00,   0.00, 1020.8,   54.2, -999.0
01-05-2022, 00:08:31,    222,    0.0,    9.5,   0.00,   0.00, 1020.8,   54.2, -999.0
01-05-2022, 00:08:40,    224,    0.0,    9.5,   0.00,   0.00, 1020.8,   54.2, -999.0
01-05-2022, 00:08:50,    225,    0.0,    9.5,   0.00,   0.00, 1020.8,   54.2, -999.0
01-05-2022, 00:09:00,    228,    0.0,    9.4,   0.00,   0.00, 1020.8,   54.3, -999.0
01-05-2022, 00:09:10,    229,    0.0,    9.5,   0.00,   0.00, 1020.8,   54.3, -999.0
01-05-2022, 00:09:20,    242,    0.0,    9.4,   0.00,   0.00, 1020.8,   54.5, -999.0
01-05-2022, 00:09:30,    244,    0.0,    9.4,   0.00,   0.00, 1020.8,   54.3, -999.0
01-05-2022, 00:09:40,    253,    0.0,    9.5,   0.00,   0.00, 1020.8,   54.3, -999.0
01-05-2022, 00:09:50,    252,    0.6,    9.5,   0.00,   0.00, 1020.9,   54.6, -999.0
01-05-2022, 00:10:00,    262,    1.1,    9.5,   0.00,   0.00, 1021.0,   54.6, -999.0
01-05-2022, 00:10:10,    252,    0.9,    9.5,   0.00,   0.00, 1020.9,   54.7, -999.0
01-05-2022, 00:10:20,    238,    0.6,    9.5,   0.00,   0.00, 1020.9,   54.5, -999.0
01-05-2022, 00:10:30,    240,    0.0,    9.5,   0.00,   0.00, 1020.8,   54.3, -999.0
01-05-2022, 00:10:40,    238,    0.7,    9.5,   0.00,   0.00, 1021.0,   54.7, -999.0
01-05-2022, 00:10:50,    260,    1.2,    9.6,   0.00,   0.00, 1020.9,   54.6, -999.0
01-05-2022, 00:11:00,    258,    0.8,    9.5,   0.00,   0.00, 1020.9,   54.7, -999.0
01-05-2022, 00:11:10,    257,    0.5,    9.5,   0.00,   0.00, 1020.9,   54.7, -999.0
01-05-2022, 00:11:19,    221,    1.4,    9.5,   0.00,   0.00, 1020.9,   54.7, -999.0
01-05-2022, 00:11:29,    214,    0.7,    9.5,   0.00,   0.00, 1020.9,   54.7, -999.0
01-05-2022, 00:11:40,    225,    0.0,    9.4,   0.00,   0.00, 1020.8,   54.5, -999.0
01-05-2022, 00:11:49,    233,    0.2,    9.5,   0.00,   0.00, 1020.9,   54.7, -999.0
01-05-2022, 00:11:59,    246,    0.5,    9.5,   0.00,   0.00, 1020.9,   54.9, -999.0
01-05-2022, 00:12:10,    200,    0.0,    9.5,   0.00,   0.00, 1020.8,   54.5, -999.0
01-05-2022, 00:12:19,    205,    0.1,    9.5,   0.00,   0.00, 1020.8,   54.6, -999.0
01-05-2022, 00:12:29,    251,    0.2,    9.6,   0.00,   0.00, 1020.9,   54.7, -999.0
01-05-2022, 00:12:39,    251,    0.0,    9.5,   0.00,   0.00, 1020.8,   54.6, -999.0
01-05-2022, 00:12:49,    261,    0.2,    9.5,   0.00,   0.00, 1020.9,   54.6, -999.0
01-05-2022, 00:12:59,    262,    0.7,    9.6,   0.00,   0.00, 1020.9,   54.8, -999.0
01-05-2022, 00:13:09,    262,    0.0,    9.5,   0.00,   0.00, 1020.8,   54.4, -999.0
01-05-2022, 00:13:19,    186,    0.1,    9.5,   0.00,   0.00, 1020.9,   54.7, -999.0
01-05-2022, 00:13:29,    191,    0.0,    9.5,   0.00,   0.00, 1020.8,   54.5, -999.0
01-05-2022, 00:13:39,    193,    0.0,    9.5,   0.00,   0.00, 1020.8,   54.3, -999.0
01-05-2022, 00:13:49,    229,    0.0,    9.5,   0.00,   0.00, 1020.8,   54.5, -999.0
01-05-2022, 00:13:59,    235,    0.0,    9.4,   0.00,   0.00, 1020.8,   54.4, -999.0
01-05-2022, 00:14:09,    243,    0.5,    9.5,   0.00,   0.00, 1020.9,   54.7, -999.0
01-05-2022, 00:14:19,    253,    0.3,    9.5,   0.00,   0.00, 1020.9,   54.7, -999.0
01-05-2022, 00:14:28,    253,    0.8,    9.5,   0.00,   0.00, 1021.0,   54.8, -999.0
01-05-2022, 00:14:39,    243,    0.9,    9.6,   0.00,   0.00, 1020.9,   54.8, -999.0
01-05-2022, 00:14:49,    243,    0.0,    9.4,   0.00,   0.00, 1020.8,   54.5, -999.0
01-05-2022, 00:14:58,    244,    0.0,    9.5,   0.00,   0.00, 1020.8,   54.6, -999.0
01-05-2022, 00:15:08,    250,    0.0,    9.4,   0.00,   0.00, 1020.8,   54.6, -999.0
01-05-2022, 00:15:19,    254,    0.1,    9.5,   0.00,   0.00, 1020.9,   54.8, -999.0
01-05-2022, 00:15:28,    251,    0.1,    9.5,   0.00,   0.00, 1020.8,   54.7, -999.0
01-05-2022, 00:15:38,    250,    0.0,    9.4,   0.00,   0.00, 1020.8,   54.5, -999.0
01-05-2022, 00:15:48,    254,    0.2,    9.5,   0.00,   0.00, 1020.9,   54.7, -999.0
01-05-2022, 00:15:58,    255,    0.1,    9.4,   0.00,   0.00, 1020.8,   54.7, -999.0
01-05-2022, 00:16:08,    255,    0.0,    9.4,   0.00,   0.00, 1020.8,   54.7, -999.0
01-05-2022, 00:16:18,    255,    0.0,    9.4,   0.00,   0.00, 1020.8,   54.6, -999.0
01-05-2022, 00:16:28,    255,    0.0,    9.4,   0.00,   0.00, 1020.8,   54.7, -999.0
01-05-2022, 00:16:38,    252,    0.0,    9.4,   0.00,   0.00, 1020.8,   54.6, -999.0
01-05-2022, 00:16:48,    251,    0.0,    9.4,   0.00,   0.00, 1020.7,   54.6, -999.0
01-05-2022, 00:16:58,    250,    0.0,    9.4,   0.00,   0.00, 1020.7,   54.7, -999.0
01-05-2022, 00:17:08,    251,    0.0,    9.4,   0.00,   0.00, 1020.7,   54.7, -999.0
01-05-2022, 00:17:18,    251,    0.0,    9.4,   0.00,   0.00, 1020.8,   54.6, -999.0
01-05-2022, 00:17:28,    254,    0.1,    9.4,   0.00,   0.00, 1020.8,   54.7, -999.0
01-05-2022, 00:17:37,    242,    0.5,    9.3,   0.00,   0.00, 1020.8,   55.0, -999.0
01-05-2022, 00:17:48,    243,    1.2,    9.4,   0.00,   0.00, 1020.8,   55.2, -999.0
01-05-2022, 00:17:58,    253,    2.1,    9.5,   0.00,   0.00, 1020.9,   55.0, -999.0
01-05-2022, 00:18:07,    259,    1.8,    9.5,   0.00,   0.00, 1020.9,   55.0, -999.0
01-05-2022, 00:18:17,    283,    1.5,    9.5,   0.00,   0.00, 1020.8,   54.9, -999.0
01-05-2022, 00:18:28,    282,    0.5,    9.4,   0.00,   0.00, 1020.8,   54.8, -999.0
01-05-2022, 00:18:37,    282,    0.0,    9.3,   0.00,   0.00, 1020.7,   54.7, -999.0
01-05-2022, 00:18:47,    282,    0.0,    9.3,   0.00,   0.00, 1020.7,   54.7, -999.0
01-05-2022, 00:18:57,    282,    0.0,    9.3,   0.00,   0.00, 1020.8,   54.8, -999.0
01-05-2022, 00:19:07,    282,    0.0,    9.4,   0.00,   0.00, 1020.7,   54.9, -999.0
01-05-2022, 00:19:17,    282,    0.0,    9.4,   0.00,   0.00, 1020.7,   55.0, -999.0
01-05-2022, 00:19:27,    282,    0.0,    9.2,   0.00,   0.00, 1020.7,   54.9, -999.0
01-05-2022, 00:19:37,    282,    0.0,    9.4,   0.00,   0.00, 1020.7,   54.9, -999.0
01-05-2022, 00:19:47,    282,    0.0,    9.3,   0.00,   0.00, 1020.7,   54.9, -999.0
01-05-2022, 00:19:57,    251,    0.0,    9.3,   0.00,   0.00, 1020.7,   54.9, -999.0
01-05-2022, 00:20:07,    256,    0.8,    9.4,   0.00,   0.00, 1020.9,   55.1, -999.0
01-05-2022, 00:20:17,    255,    0.3,    9.4,   0.00,   0.00, 1020.8,   55.1, -999.0
01-05-2022, 00:20:27,    255,    0.8,    9.5,   0.00,   0.00, 1020.9,   55.2, -999.0
01-05-2022, 00:20:37,    255,    0.3,    9.5,   0.00,   0.00, 1020.9,   55.2, -999.0
01-05-2022, 00:20:47,    255,    0.0,    9.4,   0.00,   0.00, 1020.7,   54.8, -999.0
01-05-2022, 00:20:57,    254,    0.0,    9.4,   0.00,   0.00, 1020.7,   54.9, -999.0
01-05-2022, 00:21:07,    254,    0.0,    9.4,   0.00,   0.00, 1020.7,   54.9, -999.0
01-05-2022, 00:21:16,    254,    0.0,    9.4,   0.00,   0.00, 1020.7,   54.8, -999.0
01-05-2022, 00:21:27,    181,    0.1,    9.3,   0.00,   0.00, 1020.8,   54.9, -999.0
01-05-2022, 00:21:37,    185,    0.0,    9.3,   0.00,   0.00, 1020.7,   55.0, -999.0
01-05-2022, 00:21:46,    185,    0.0,    9.3,   0.00,   0.00, 1020.7,   54.9, -999.0
01-05-2022, 00:21:56,    186,    0.0,    9.4,   0.00,   0.00, 1020.7,   55.0, -999.0
01-05-2022, 00:22:06,    232,    0.0,    9.4,   0.00,   0.00, 1020.7,   55.0, -999.0
01-05-2022, 00:22:16,    237,    0.7,    9.4,   0.00,   0.00, 1020.8,   55.1, -999.0
01-05-2022, 00:22:26,    238,    0.0,    9.3,   0.00,   0.00, 1020.8,   54.8, -999.0
01-05-2022, 00:22:36,    238,    0.0,    9.4,   0.00,   0.00, 1020.7,   54.8, -999.0
01-05-2022, 00:22:46,    238,    0.0,    9.3,   0.00,   0.00, 1020.7,   54.9, -999.0
01-05-2022, 00:22:56,    238,    0.0,    9.4,   0.00,   0.00, 1020.7,   54.9, -999.0
01-05-2022, 00:23:06,    238,    0.0,    9.3,   0.00,   0.00, 1020.8,   54.9, -999.0
01-05-2022, 00:23:16,    236,    0.0,    9.3,   0.00,   0.00, 1020.8,   54.9, -999.0
01-05-2022, 00:23:26,    240,    0.0,    9.3,   0.00,   0.00, 1020.8,   55.0, -999.0
01-05-2022, 00:23:36,    239,    0.0,    9.4,   0.00,   0.00, 1020.7,   54.9, -999.0
01-05-2022, 00:23:46,    243,    0.0,    9.4,   0.00,   0.00, 1020.7,   54.9, -999.0
01-05-2022, 00:23:56,    288,    0.9,    9.4,   0.00,   0.00, 1020.9,   55.2, -999.0
01-05-2022, 00:24:06,    286,    0.9,    9.5,   0.00,   0.00, 1020.9,   55.3, -999.0
01-05-2022, 00:24:16,    246,    0.7,    9.5,   0.00,   0.00, 1020.9,   55.2, -999.0
01-05-2022, 00:24:25,    182,    0.2,    9.3,   0.00,   0.00, 1020.8,   55.1, -999.0
01-05-2022, 00:24:36,    222,    0.4,    9.4,   0.00,   0.00, 1020.8,   55.1, -999.0
01-05-2022, 00:24:46,    221,    0.0,    9.4,   0.00,   0.00, 1020.7,   54.9, -999.0
01-05-2022, 00:24:55,    231,    0.0,    9.4,   0.00,   0.00, 1020.7,   54.9, -999.0
01-05-2022, 00:25:06,    236,    0.4,    9.4,   0.00,   0.00, 1020.8,   55.0, -999.0
01-05-2022, 00:25:15,    247,    0.4,    9.4,   0.00,   0.00, 1020.9,   55.2, -999.0
01-05-2022, 00:25:25,    262,    0.2,    9.4,   0.00,   0.00, 1020.8,   54.9, -999.0
01-05-2022, 00:25:35,    262,    0.1,    9.4,   0.00,   0.00, 1020.8,   54.9, -999.0
01-05-2022, 00:25:45,    259,    0.8,    9.5,   0.00,   0.00, 1020.9,   55.1, -999.0
01-05-2022, 00:25:55,    260,    0.3,    9.3,   0.00,   0.00, 1020.8,   54.9, -999.0
01-05-2022, 00:26:05,    258,    0.0,    9.3,   0.00,   0.00, 1020.7,   54.7, -999.0
01-05-2022, 00:26:15,    258,    0.0,    9.4,   0.00,   0.00, 1020.8,   54.9, -999.0
01-05-2022, 00:26:25,    258,    0.0,    9.4,   0.00,   0.00, 1020.7,   54.8, -999.0
01-05-2022, 00:26:35,    250,    0.2,    9.4,   0.00,   0.00, 1020.8,   55.1, -999.0
01-05-2022, 00:26:45,    250,    0.0,    9.4,   0.00,   0.00, 1020.8,   55.0, -999.0
01-05-2022, 00:26:55,    197,    0.0,    9.4,   0.00,   0.00, 1020.8,   55.0, -999.0
01-05-2022, 00:27:05,    192,    0.1,    9.4,   0.00,   0.00, 1020.8,   55.0, -999.0
01-05-2022, 00:27:15,    193,    0.0,    9.4,   0.00,   0.00, 1020.8,   55.0, -999.0
01-05-2022, 00:27:25,    199,    0.0,    9.3,   0.00,   0.00, 1020.7,   54.9, -999.0
01-05-2022, 00:27:35,    230,    0.0,    9.4,   0.00,   0.00, 1020.7,   54.8, -999.0
01-05-2022, 00:27:45,    230,    0.0,    9.4,   0.00,   0.00, 1020.8,   55.0, -999.0
01-05-2022, 00:27:55,    231,    0.0,    9.4,   0.00,   0.00, 1020.7,   54.9, -999.0
01-05-2022, 00:28:04,    230,    0.0,    9.3,   0.00,   0.00, 1020.7,   55.0, -999.0
01-05-2022, 00:28:15,    230,    0.0,    9.3,   0.00,   0.00, 1020.7,   54.9, -999.0
01-05-2022, 00:28:25,    230,    0.0,    9.4,   0.00,   0.00, 1020.8,   54.9, -999.0
01-05-2022, 00:28:34,    235,    0.0,    9.3,   0.00,   0.00, 1020.7,   55.0, -999.0
01-05-2022, 00:28:44,    235,    0.0,    9.4,   0.00,   0.00, 1020.8,   55.0, -999.0
01-05-2022, 00:28:54,    238,    0.0,    9.3,   0.00,   0.00, 1020.7,   55.0, -999.0
01-05-2022, 00:29:04,    239,    0.0,    9.3,   0.00,   0.00, 1020.7,   55.0, -999.0
01-05-2022, 00:29:14,    238,    0.0,    9.3,   0.00,   0.00, 1020.7,   55.0, -999.0
01-05-2022, 00:29:24,    238,    0.0,    9.4,   0.00,   0.00, 1020.7,   54.9, -999.0
01-05-2022, 00:29:36,    238,    0.0,    9.3,   0.00,   0.00, 1020.7,   55.0, -999.0
01-05-2022, 00:29:44,    238,    0.0,    9.3,   0.00,   0.00, 1020.7,   54.9, -999.0
01-05-2022, 00:29:54,    238,    0.0,    9.5,   0.00,   0.00, 1020.7,   55.0, -999.0
01-05-2022, 00:30:04,    238,    0.0,    9.3,   0.00,   0.00, 1020.7,   54.9, -999.0
01-05-2022, 00:30:14,    238,    0.0,    9.4,   0.00,   0.00, 1020.7,   55.0, -999.0
01-05-2022, 00:30:24,    238,    0.0,    9.4,   0.00,   0.00, 1020.7,   55.0, -999.0
01-05-2022, 00:30:34,    238,    0.0,    9.2,   0.00,   0.00, 1020.7,   54.9, -999.0
01-05-2022, 00:30:44,    238,    0.2,    9.4,   0.00,   0.00, 1020.7,   55.2, -999.0
01-05-2022, 00:30:54,    234,    0.2,    9.3,   0.00,   0.00, 1020.7,   55.1, -999.0
01-05-2022, 00:31:04,    235,    0.0,    9.3,   0.00,   0.00, 1020.7,   55.0, -999.0
01-05-2022, 00:31:13,    235,    0.0,    9.2,   0.00,   0.00, 1020.7,   55.1, -999.0
01-05-2022, 00:31:24,    235,    0.0,    9.3,   0.00,   0.00, 1020.7,   55.0, -999.0
01-05-2022, 00:31:34,    235,    0.0,    9.3,   0.00,   0.00, 1020.7,   55.1, -999.0
01-05-2022, 00:31:43,    235,    0.0,    9.4,   0.00,   0.00, 1020.7,   55.1, -999.0
01-05-2022, 00:31:54,    234,    0.0,    9.3,   0.00,   0.00, 1020.7,   55.1, -999.0
01-05-2022, 00:32:03,    235,    0.0,    9.4,   0.00,   0.00, 1020.7,   55.0, -999.0
01-05-2022, 00:32:13,    235,    0.0,    9.4,   0.00,   0.00, 1020.7,   55.1, -999.0
01-05-2022, 00:32:23,    236,    0.0,    9.4,   0.00,   0.00, 1020.7,   55.0, -999.0
01-05-2022, 00:32:33,    242,    0.4,    9.5,   0.00,   0.00, 1020.8,   55.2, -999.0
01-05-2022, 00:32:43,    250,    0.6,    9.5,   0.00,   0.00, 1020.8,   55.3, -999.0
01-05-2022, 00:32:53,    249,    0.0,    9.3,   0.00,   0.00, 1020.7,   55.0, -999.0
01-05-2022, 00:33:03,    249,    0.0,    9.3,   0.00,   0.00, 1020.7,   55.1, -999.0
01-05-2022, 00:33:13,    250,    0.0,    9.3,   0.00,   0.00, 1020.7,   55.1, -999.0
01-05-2022, 00:33:23,    254,    0.0,    9.4,   0.00,   0.00, 1020.7,   55.0, -999.0
01-05-2022, 00:33:33,    254,    0.0,    9.4,   0.00,   0.00, 1020.6,   55.0, -999.0
01-05-2022, 00:33:43,    251,    0.0,    9.4,   0.00,   0.00, 1020.7,   55.0, -999.0
01-05-2022, 00:33:53,    253,    0.0,    9.4,   0.00,   0.00, 1020.7,   55.0, -999.0
01-05-2022, 00:34:03,    253,    0.0,    9.4,   0.00,   0.00, 1020.7,   55.1, -999.0
01-05-2022, 00:34:13,    253,    0.0,    9.3,   0.00,   0.00, 1020.7,   55.1, -999.0
01-05-2022, 00:34:22,    253,    0.0,    9.4,   0.00,   0.00, 1020.7,   55.0, -999.0
01-05-2022, 00:34:33,    227,    0.0,    9.3,   0.00,   0.00, 1020.7,   54.9, -999.0
01-05-2022, 00:34:43,    224,    0.0,    9.4,   0.00,   0.00, 1020.7,   55.1, -999.0
01-05-2022, 00:34:52,    225,    0.0,    9.3,   0.00,   0.00, 1020.6,   54.9, -999.0
01-05-2022, 00:35:03,    224,    0.0,    9.4,   0.00,   0.00, 1020.7,   54.9, -999.0
01-05-2022, 00:35:12,    228,    0.0,    9.2,   0.00,   0.00, 1020.7,   54.9, -999.0
01-05-2022, 00:35:22,    231,    0.0,    9.4,   0.00,   0.00, 1020.6,   55.0, -999.0
01-05-2022, 00:35:32,    231,    0.0,    9.3,   0.00,   0.00, 1020.6,   54.9, -999.0
01-05-2022, 00:35:42,    231,    0.0,    9.3,   0.00,   0.00, 1020.6,   55.0, -999.0
01-05-2022, 00:35:52,    231,    0.0,    9.3,   0.00,   0.00, 1020.6,   55.0, -999.0
01-05-2022, 00:36:02,    241,    0.0,    9.4,   0.00,   0.00, 1020.6,   55.0, -999.0
01-05-2022, 00:36:12,    242,    0.0,    9.3,   0.00,   0.00, 1020.6,   55.1, -999.0
01-05-2022, 00:36:22,    242,    0.0,    9.3,   0.00,   0.00, 1020.6,   54.9, -999.0
01-05-2022, 00:36:32,    242,    0.0,    9.3,   0.00,   0.00, 1020.6,   55.0, -999.0
01-05-2022, 00:36:42,    240,    0.0,    9.3,   0.00,   0.00, 1020.6,   55.1, -999.0
01-05-2022, 00:36:52,    240,    0.0,    9.3,   0.00,   0.00, 1020.6,   55.1, -999.0
01-05-2022, 00:37:02,    246,    0.0,    9.4,   0.00,   0.00, 1020.6,   55.1, -999.0
01-05-2022, 00:37:12,    243,    0.0,    9.3,   0.00,   0.00, 1020.6,   55.1, -999.0
01-05-2022, 00:37:22,    242,    0.0,    9.3,   0.00,   0.00, 1020.6,   55.1, -999.0
01-05-2022, 00:37:32,    241,    0.0,    9.4,   0.00,   0.00, 1020.6,   55.0, -999.0
01-05-2022, 00:37:42,    241,    0.0,    9.4,   0.00,   0.00, 1020.6,   55.0, -999.0
01-05-2022, 00:37:52,    241,    0.0,    9.3,   0.00,   0.00, 1020.6,   55.1, -999.0
01-05-2022, 00:38:01,    231,    0.4,    9.4,   0.00,   0.00, 1020.7,   55.1, -999.0
01-05-2022, 00:38:12,    218,    0.8,    9.5,   0.00,   0.00, 1020.8,   55.3, -999.0
01-05-2022, 00:38:21,    218,    0.0,    9.4,   0.00,   0.00, 1020.6,   55.0, -999.0
01-05-2022, 00:38:31,    218,    0.0,    9.4,   0.00,   0.00, 1020.6,   54.8, -999.0
01-05-2022, 00:38:41,    218,    0.0,    9.4,   0.00,   0.00, 1020.6,   54.8, -999.0
01-05-2022, 00:38:51,    217,    0.0,    9.4,   0.00,   0.00, 1020.6,   54.8, -999.0
01-05-2022, 00:39:01,    217,    0.0,    9.4,   0.00,   0.00, 1020.6,   54.9, -999.0
01-05-2022, 00:39:11,    217,    0.0,    9.4,   0.00,   0.00, 1020.6,   55.0, -999.0
01-05-2022, 00:39:21,    217,    0.0,    9.4,   0.00,   0.00, 1020.6,   55.0, -999.0
01-05-2022, 00:39:31,    217,    0.0,    9.4,   0.00,   0.00, 1020.6,   55.0, -999.0
01-05-2022, 00:39:41,    216,    0.0,    9.4,   0.00,   0.00, 1020.6,   55.0, -999.0
01-05-2022, 00:39:51,    217,    0.0,    9.3,   0.00,   0.00, 1020.6,   55.1, -999.0
01-05-2022, 00:40:01,    218,    0.0,    9.4,   0.00,   0.00, 1020.6,   55.0, -999.0
01-05-2022, 00:40:11,    218,    0.0,    9.3,   0.00,   0.00, 1020.6,   55.1, -999.0
01-05-2022, 00:40:21,    218,    0.0,    9.4,   0.00,   0.00, 1020.6,   55.0, -999.0
01-05-2022, 00:40:31,    219,    0.0,    9.3,   0.00,   0.00, 1020.6,   55.0, -999.0
01-05-2022, 00:40:41,    221,    0.0,    9.3,   0.00,   0.00, 1020.6,   55.1, -999.0
01-05-2022, 00:40:51,    231,    0.3,    9.4,   0.00,   0.00, 1020.7,   55.3, -999.0
01-05-2022, 00:41:01,    230,    0.0,    9.2,   0.00,   0.00, 1020.6,   55.0, -999.0
01-05-2022, 00:41:10,    234,    0.0,    9.3,   0.00,   0.00, 1020.6,   55.0, -999.0
01-05-2022, 00:41:21,    235,    0.1,    9.4,   0.00,   0.00, 1020.6,   55.1, -999.0
01-05-2022, 00:41:31,    238,    0.0,    9.4,   0.00,   0.00, 1020.6,   55.1, -999.0
01-05-2022, 00:41:40,    238,    0.0,    9.3,   0.00,   0.00, 1020.6,   55.1, -999.0
01-05-2022, 00:41:51,    237,    0.0,    9.3,   0.00,   0.00, 1020.6,   55.0, -999.0
01-05-2022, 00:42:00,    236,    0.0,    9.3,   0.00,   0.00, 1020.6,   55.2, -999.0
01-05-2022, 00:42:10,    235,    0.0,    9.3,   0.00,   0.00, 1020.6,   55.2, -999.0
01-05-2022, 00:42:20,    243,    0.1,    9.3,   0.00,   0.00, 1020.6,   55.3, -999.0
01-05-2022, 00:42:30,    232,    0.4,    9.4,   0.00,   0.00, 1020.7,   55.4, -999.0
01-05-2022, 00:42:40,    234,    0.5,    9.4,   0.00,   0.00, 1020.7,   55.5, -999.0
01-05-2022, 00:42:50,    233,    0.1,    9.3,   0.00,   0.00, 1020.6,   55.1, -999.0
01-05-2022, 00:43:00,    233,    0.0,    9.3,   0.00,   0.00, 1020.6,   55.1, -999.0
01-05-2022, 00:43:10,    234,    0.0,    9.3,   0.00,   0.00, 1020.6,   55.0, -999.0
01-05-2022, 00:43:20,    243,    0.3,    9.4,   0.00,   0.00, 1020.7,   55.3, -999.0
01-05-2022, 00:43:30,    249,    0.7,    9.4,   0.00,   0.00, 1020.7,   55.5, -999.0
01-05-2022, 00:43:40,    250,    0.0,    9.3,   0.00,   0.00, 1020.5,   55.1, -999.0
01-05-2022, 00:43:50,    250,    0.0,    9.3,   0.00,   0.00, 1020.5,   55.2, -999.0
01-05-2022, 00:44:00,    250,    0.0,    9.3,   0.00,   0.00, 1020.6,   55.3, -999.0
01-05-2022, 00:44:10,    248,    0.0,    9.3,   0.00,   0.00, 1020.6,   55.3, -999.0
01-05-2022, 00:44:19,    248,    0.0,    9.2,   0.00,   0.00, 1020.6,   55.3, -999.0
01-05-2022, 00:44:30,    247,    0.0,    9.3,   0.00,   0.00, 1020.6,   55.2, -999.0
01-05-2022, 00:44:40,    247,    0.0,    9.4,   0.00,   0.00, 1020.6,   55.2, -999.0
01-05-2022, 00:44:49,    250,    0.0,    9.3,   0.00,   0.00, 1020.5,   55.2, -999.0
01-05-2022, 00:45:00,    250,    0.0,    9.3,   0.00,   0.00, 1020.5,   55.3, -999.0
01-05-2022, 00:45:09,    250,    0.0,    9.4,   0.00,   0.00, 1020.6,   55.3, -999.0
01-05-2022, 00:45:19,    250,    0.0,    9.3,   0.00,   0.00, 1020.6,   55.3, -999.0
01-05-2022, 00:45:29,    250,    0.0,    9.2,   0.00,   0.00, 1020.6,   55.2, -999.0
01-05-2022, 00:45:39,    250,    0.0,    9.4,   0.00,   0.00, 1020.5,   55.3, -999.0
01-05-2022, 00:45:49,    250,    0.0,    9.3,   0.00,   0.00, 1020.5,   55.3, -999.0
01-05-2022, 00:45:59,    250,    0.0,    9.3,   0.00,   0.00, 1020.6,   55.3, -999.0
01-05-2022, 00:46:09,    250,    0.7,    9.4,   0.00,   0.00, 1020.7,   55.5, -999.0
01-05-2022, 00:46:19,    250,    0.1,    9.3,   0.00,   0.00, 1020.6,   55.2, -999.0
01-05-2022, 00:46:29,    250,    0.0,    9.2,   0.00,   0.00, 1020.5,   55.1, -999.0
01-05-2022, 00:46:39,    230,    0.1,    9.3,   0.00,   0.00, 1020.6,   55.4, -999.0